Tracking 27380 objects as of 6-Jun-2023
HD Live streaming from Space Station
objects crossing your sky now

OPS 4682 DEB

Track OPS 4682 DEB now!
10-day predictions


NORAD ID: 38410
Int'l Code: 1965-027DP
Perigee: 1,255.6 km
Apogee: 1,307.4 km
Inclination: 90.2 °
Period: 111.0 minutes
Semi major axis: 7652 km
RCS: 0.0074 m2 (small)
Launch date: April 3, 1965
Source: United States (US)
Launch site: AIR FORCE WESTERN TEST RANGE (AFWTR)

Note: This is SATELLITE DEBRIS
Your satellite tracking list
Your tracking list is empty




NASA's NSSDC Master Catalog

Two Line Element Set (TLE):
1 38410U 65027DP  23154.98466784  .00000663  00000-0  22723-2 0  9996
2 38410  90.2464 346.1319 0033872 138.3791 221.9916 12.96877396487192
Source of the keplerian elements: AFSPC